DW8205 Weather Reports


time (UTC)temp
C
wind
direction
speed
KPH
gust
KPH
rain 1hr
cm
rain 24hr
cm
rain mn
cm
humidity
%
barometer
mb
20260506094532 10 295 4.8 8.0 0.00 0.00 0.00 87 1017.8
20260506094205 11 295 6.4 11.3 0.00 0.00 0.00 87 1020.2
20260506093704 11 295 8.0 11.3 0.00 0.00 0.00 87 1020.2
20260506093205 11 295 8.0 11.3 0.00 0.00 0.00 87 1020.2
20260506093040 11 295 6.4 12.9 0.00 0.00 0.00 87 1017.8
20260506092704 11 295 9.7 14.5 0.00 0.00 0.00 86 1020.1
20260506092204 11 295 9.7 14.5 0.00 0.00 0.00 87 1020.1
20260506091704 11 295 9.7 14.5 0.00 0.00 0.00 87 1020.1
20260506091524 11 295 9.7 14.5 0.00 0.00 0.00 87 1017.7
20260506091205 11 295 9.7 11.3 0.00 0.00 0.00 87 1020.2
20260506090705 11 295 9.7 11.3 0.00 0.00 0.00 88 1020.2
20260506090204 11 295 9.7 11.3 0.00 0.00 0.00 88 1020.1
20260506090019 11 295 9.7 12.9 0.00 0.00 0.00 88 1017.8
20260506085704 11 295 9.7 8.0 0.00 0.00 0.00 88 1020.2
20260506085205 11 295 6.4 4.8 0.00 0.00 0.00 87 1020.2
20260506084705 11 295 1.6 0.0 0.00 0.00 0.00 87 1020.4
20260506084515 11 295 0.0 0.0 0.00 0.00 0.00 86 1018.0
20260506084204 11 295 0.0 0.0 0.00 0.00 0.00 87 1020.3
20260506083705 11 295 0.0 0.0 0.00 0.00 0.00 87 1020.5
20260506083204 11 295 0.0 0.0 0.00 0.00 0.00 87 1020.5
20260506083015 11 295 0.0 0.0 0.00 0.00 0.00 87 1018.2
20260506082704 11 295 0.0 0.0 0.00 0.00 0.00 86 1020.5
20260506082205 11 295 0.0 0.0 0.00 0.00 0.00 85 1020.5
20260506081704 12 295 0.0 0.0 0.00 0.00 0.00 85 1020.5
20260506081511 12 295 0.0 0.0 0.00 0.00 0.00 85 1018.1
20260506080704 12 295 0.0 0.0 0.00 0.00 0.00 85 1020.3
20260506080204 12 295 0.0 0.0 0.00 0.00 0.00 85 1020.4
20260506073005 12 295 0.0 0.0 0.00 0.00 0.00 84 1017.8
20260506072704 12 295 0.0 0.0 0.00 0.00 0.00 84 1020.1
20260506071704 12 295 0.0 0.0 0.00 0.00 0.00 84 1020.0
20260506071506 12 295 0.0 0.0 0.00 0.00 0.00 84 1017.5
20260506071204 12 295 0.0 0.0 0.00 0.00 0.00 84 1019.9
20260506070704 12 295 0.0 0.0 0.00 0.00 0.00 83 1019.8
20260506070117 12 295 0.0 0.0 0.00 0.00 0.00 83 1017.2
20260506062204 13 295 0.0 0.0 0.00 0.00 0.00 81 1019.2
20260506061704 13 295 0.0 0.0 0.00 0.00 0.00 81 1019.2
20260506061559 13 295 0.0 0.0 0.00 0.00 0.00 81 1016.8
20260506061205 13 295 0.0 0.0 0.00 0.00 0.00 81 1019.2
20260506060705 13 295 0.0 0.0 0.00 0.00 0.00 82 1019.2
20260506060204 13 295 0.0 0.0 0.00 0.00 0.00 82 1019.2
20260506051205 13 295 0.0 0.0 0.00 0.00 0.00 79 1019.1
20260506050705 13 295 0.0 0.0 0.00 0.00 0.00 79 1019.1
20260506050205 13 295 0.0 0.0 0.00 0.00 0.00 79 1019.1
20260506044704 13 295 0.0 0.0 0.00 0.00 0.00 78 1018.9
20260506044557 13 295 0.0 0.0 0.00 0.00 0.00 78 1016.4
20260506044205 13 295 0.0 0.0 0.00 0.00 0.00 78 1018.9
20260506043704 13 295 0.0 0.0 0.00 0.00 0.00 78 1018.7
20260506043204 14 295 0.0 0.0 0.00 0.00 0.00 78 1018.7
20260506043049 13 295 0.0 0.0 0.00 0.00 0.00 77 1016.3
20260506042704 14 295 0.0 0.0 0.00 0.00 0.00 77 1018.7
20260506042204 14 295 0.0 0.0 0.00 0.00 0.00 77 1018.4
20260506041704 14 295 0.0 0.0 0.00 0.00 0.00 76 1018.5
20260506041551 14 295 0.0 0.0 0.00 0.00 0.00 76 1016.1
20260506040705 15 295 0.0 0.0 0.00 0.00 0.00 75 1018.3
20260506040204 15 295 0.0 0.0 0.00 0.00 0.00 75 1018.2
20260506040045 14 295 0.0 0.0 0.00 0.00 0.00 75 1015.8
20260506035704 15 295 0.0 11.3 0.00 0.00 0.00 75 1018.3
20260506035204 15 295 0.0 11.3 0.00 0.00 0.00 74 1018.3
20260506034704 15 295 0.0 14.5 0.00 0.00 0.00 74 1018.2
20260506034542 15 295 3.2 12.9 0.00 0.00 0.00 74 1015.7
20260506034205 15 295 9.7 14.5 0.00 0.00 0.00 74 1018.1
20260506033705 15 295 9.7 16.1 0.00 0.00 0.00 73 1018.0
20260506033040 15 295 9.7 16.1 0.00 0.00 0.00 73 1015.4
20260506032705 15 295 11.3 20.9 0.00 0.00 0.00 72 1017.7
20260506031554 15 295 14.5 20.9 0.00 0.00 0.00 71 1015.1
20260506031204 16 295 14.5 19.3 0.00 0.00 0.00 71 1017.5
20260506030205 16 295 16.1 20.9 0.00 0.00 0.00 69 1017.4
20260506030055 16 295 14.5 20.9 0.00 0.00 0.00 69 1014.9
20260506025704 16 295 14.5 20.9 0.00 0.00 0.00 69 1017.3
20260506025204 16 288 17.7 19.3 0.00 0.00 0.00 69 1017.3
20260506024705 16 278 12.9 20.9 0.00 0.00 0.00 68 1017.2
20260506024539 16 281 12.9 19.3 0.00 0.00 0.00 68 1014.8
20260506024205 16 295 14.5 20.9 0.00 0.00 0.00 68 1017.1
20260506023704 16 295 16.1 20.9 0.00 0.00 0.00 67 1017.2
20260506023039 16 281 14.5 20.9 0.00 0.00 0.00 66 1014.7
20260506021704 17 273 14.5 25.7 0.00 0.00 0.00 64 1017.0
20260506021537 17 274 19.3 25.7 0.00 0.00 0.00 64 1014.5
20260506020704 17 285 17.7 27.4 0.00 0.00 0.00 63 1016.9
20260506020036 18 284 17.7 24.1 0.00 0.00 0.00 62 1014.6
20260506015204 18 283 19.3 25.7 0.00 0.00 0.00 61 1017.1
20260506014704 18 262 17.7 24.1 0.00 0.00 0.00 60 1017.1
20260506014536 18 274 20.9 25.7 0.00 0.00 0.00 59 1014.6
20260506014204 18 271 16.1 24.1 0.00 0.00 0.00 60 1016.9
20260506013704 18 280 20.9 20.9 0.00 0.00 0.00 60 1016.8
20260506013205 18 295 14.5 17.7 0.00 0.00 0.00 60 1016.9
20260506013041 18 295 11.3 17.7 0.00 0.00 0.00 61 1014.6
20260506012704 18 295 9.7 17.7 0.00 0.00 0.00 61 1016.9
20260506012204 18 298 9.7 17.7 0.00 0.00 0.00 61 1016.9
20260506011705 18 289 14.5 19.3 0.00 0.00 0.00 61 1017.0
20260506011534 18 267 12.9 16.1 0.00 0.00 0.00 61 1014.5
20260506011204 18 266 9.7 19.3 0.00 0.00 0.00 60 1017.1
20260506010704 18 266 9.7 19.3 0.00 0.00 0.00 61 1017.0
20260506010205 18 295 12.9 19.3 0.00 0.00 0.00 60 1017.1
20260506010035 18 247 11.3 19.3 0.00 0.00 0.00 60 1014.6
20260506005704 18 271 12.9 19.3 0.00 0.00 0.00 60 1017.0
20260506005204 18 249 8.0 17.7 0.00 0.00 0.00 60 1017.0
20260506004704 18 282 9.7 20.9 0.00 0.00 0.00 59 1017.0
20260506004603 18 240 11.3 17.7 0.00 0.00 0.00 59 1014.5
20260506004204 19 282 9.7 22.5 0.00 0.00 0.00 59 1017.0
20260506003704 19 278 11.3 22.5 0.00 0.00 0.00 59 1017.0
20260506003205 18 266 11.3 20.9 0.00 0.00 0.00 59 1017.0
20260506003033 18 280 16.1 22.5 0.00 0.00 0.00 59 1014.6
20260506002704 18 301 14.5 19.3 0.00 0.00 0.00 59 1016.9
20260506002204 18 269 14.5 19.3 0.00 0.00 0.00 59 1016.9
20260506001532 18 290 12.9 19.3 0.00 0.00 0.00 60 1014.5
20260506001205 18 302 9.7 19.3 0.00 0.00 0.00 60 1017.0
20260506000705 18 296 11.3 20.9 0.00 0.00 0.00 60 1016.9
20260506000033 18 295 11.3 20.9 0.00 0.00 0.00 59 1014.4
20260505235704 18 290 14.5 20.9 0.00 0.00 0.00 59 1016.8
20260505235204 18 295 8.0 19.3 0.00 0.00 0.00 59 1016.8
20260505234704 18 316 12.9 24.1 0.00 0.00 0.00 59 1016.7
20260505234602 18 283 11.3 17.7 0.00 0.00 0.00 59 1014.3
20260505234205 18 295 12.9 24.1 0.00 0.00 0.00 59 1016.8
20260505233705 19 326 14.5 24.1 0.00 0.00 0.00 58 1016.8
20260505233032 18 295 16.1 22.5 0.00 0.00 0.00 58 1014.3
20260505232704 19 311 14.5 19.3 0.00 0.00 0.00 58 1016.7
20260505232204 19 346 11.3 19.3 0.00 0.00 0.00 57 1016.8
20260505231704 20 326 12.9 17.7 0.00 0.00 0.00 55 1016.9
20260505231531 19 337 8.0 16.1 0.00 0.00 0.00 56 1014.4
20260505231204 19 295 8.0 17.7 0.00 0.00 0.00 56 1016.7
20260505230705 19 6 9.7 19.3 0.00 0.00 0.00 56 1016.8
20260505230028 19 348 9.7 17.7 0.00 0.00 0.00 56 1014.4
20260505225704 20 334 1.6 19.3 0.00 0.00 0.00 55 1016.8
20260505225204 20 276 14.5 22.5 0.00 0.00 0.00 56 1016.8
20260505224704 20 279 9.7 22.5 0.00 0.00 0.00 56 1016.9
20260505224532 19 295 9.7 22.5 0.00 0.00 0.00 57 1014.4
20260505223704 19 271 9.7 22.5 0.00 0.00 0.00 57 1016.9
20260505223204 20 306 12.9 27.4 0.00 0.00 0.00 56 1016.9
20260505223027 19 280 14.5 20.9 0.00 0.00 0.00 57 1014.5
20260505222205 19 295 17.7 27.4 0.00 0.00 0.00 57 1017.0
20260505221704 19 302 20.9 29.0 0.00 0.00 0.00 57 1017.0
20260505221528 19 300 11.3 24.1 0.00 0.00 0.00 56 1014.6
20260505220704 19 269 17.7 29.0 0.00 0.00 0.00 56 1017.0
20260505220206 19 278 14.5 17.7 0.00 0.00 0.00 57 1017.0
20260505220026 18 295 16.1 20.9 0.00 0.00 0.00 57 1014.6
20260505215704 18 295 12.9 17.7 0.00 0.00 0.00 57 1017.1
20260505215204 18 305 11.3 17.7 0.00 0.00 0.00 56 1017.1
20260505214705 18 279 14.5 14.5 0.00 0.00 0.00 57 1017.1
20260505214525 18 304 11.3 16.1 0.00 0.00 0.00 57 1014.7
20260505214205 18 295 6.4 19.3 0.00 0.00 0.00 57 1017.1
20260505213204 20 301 8.0 19.3 0.00 0.00 0.00 54 1017.2
20260505213024 19 264 6.4 19.3 0.00 0.00 0.00 53 1014.8
20260505212704 20 242 16.1 19.3 0.00 0.00 0.00 54 1017.2
20260505211704 19 255 11.3 11.3 0.00 0.00 0.00 55 1017.3
20260505211521 19 266 11.3 19.3 0.00 0.00 0.00 55 1014.8
20260505211205 19 264 4.8 9.7 0.00 0.00 0.00 56 1017.3
20260505210704 18 295 6.4 14.5 0.00 0.00 0.00 58 1017.2
20260505210204 18 311 0.0 14.5 0.00 0.00 0.00 57 1017.2
20260505210022 18 318 0.0 12.9 0.00 0.00 0.00 56 1014.9
20260505205705 18 311 3.2 14.5 0.00 0.00 0.00 56 1017.4
20260505204705 18 165 4.8 8.0 0.00 0.00 0.00 57 1017.5
20260505204525 18 160 3.2 9.7 0.00 0.00 0.00 58 1015.0
20260505204205 18 145 3.2 14.5 0.00 0.00 0.00 57 1017.5
20260505203704 17 127 1.6 16.1 0.00 0.00 0.00 58 1017.6
20260505203204 18 190 3.2 16.1 0.00 0.00 0.00 54 1017.5
20260505203020 18 233 6.4 16.1 0.00 0.00 0.00 55 1015.1
20260505202704 18 231 6.4 16.1 0.00 0.00 0.00 55 1017.5
20260505202204 18 271 9.7 16.1 0.00 0.00 0.00 58 1017.5
20260505201705 18 238 11.3 16.1 0.00 0.00 0.00 59 1017.5
20260505201519 17 238 3.2 16.1 0.00 0.00 0.00 59 1015.1
20260505201205 18 296 6.4 16.1 0.00 0.00 0.00 58 1017.5
20260505200705 18 283 11.3 14.5 0.00 0.00 0.00 60 1017.5
20260505200204 18 299 6.4 19.3 0.00 0.00 0.00 60 1017.6
20260505200022 17 282 8.0 14.5 0.00 0.00 0.00 60 1015.2
20260505195205 17 295 8.0 19.3 0.00 0.00 0.00 62 1017.8
20260505194705 17 261 1.6 14.5 0.00 0.00 0.00 63 1017.8
20260505194614 16 266 0.0 12.9 0.00 0.00 0.00 62 1015.4
20260505194204 17 272 4.8 14.5 0.00 0.00 0.00 60 1017.8
20260505193704 17 241 8.0 17.7 0.00 0.00 0.00 61 1017.9
20260505193204 17 235 6.4 17.7 0.00 0.00 0.00 62 1017.9
20260505193012 17 265 6.4 17.7 0.00 0.00 0.00 61 1015.4
20260505192704 17 279 9.7 17.7 0.00 0.00 0.00 61 1017.8
20260505192204 17 266 12.9 17.7 0.00 0.00 0.00 60 1017.8
20260505191704 17 278 12.9 16.1 0.00 0.00 0.00 61 1017.7
20260505191511 17 278 6.4 16.1 0.00 0.00 0.00 61 1015.3
20260505191205 17 235 9.7 17.7 0.00 0.00 0.00 61 1017.7
20260505190705 17 238 3.2 19.3 0.00 0.00 0.00 62 1017.8
20260505190204 17 280 8.0 19.3 0.00 0.00 0.00 62 1017.8
20260505190009 17 290 11.3 19.3 0.00 0.00 0.00 62 1015.4
20260505185705 17 295 12.9 19.3 0.00 0.00 0.00 63 1017.8
20260505185205 17 295 4.8 16.1 0.00 0.00 0.00 64 1017.7
20260505184704 17 295 6.4 16.1 0.00 0.00 0.00 62 1017.7
20260505184515 17 262 4.8 14.5 0.00 0.00 0.00 63 1015.3
20260505184205 17 295 8.0 16.1 0.00 0.00 0.00 66 1017.6
20260505183705 17 312 9.7 14.5 0.00 0.00 0.00 62 1017.7
20260505183205 17 295 4.8 14.5 0.00 0.00 0.00 64 1017.6
20260505183015 16 283 6.4 14.5 0.00 0.00 0.00 63 1015.3
20260505182704 16 295 9.7 16.1 0.00 0.00 0.00 64 1017.7
20260505182205 16 295 4.8 16.1 0.00 0.00 0.00 64 1017.7
20260505181705 16 347 8.0 16.1 0.00 0.00 0.00 66 1017.6
20260505181503 16 300 4.8 16.1 0.00 0.00 0.00 64 1015.1
20260505180704 16 290 9.7 14.5 0.00 0.00 0.00 66 1017.5
20260505180205 16 302 4.8 11.3 0.00 0.00 0.00 67 1017.5
20260505180001 15 295 3.2 14.5 0.00 0.00 0.00 68 1015.1
20260505175205 15 295 8.0 14.5 0.00 0.00 0.00 70 1017.5
20260505174704 15 295 6.4 16.1 0.00 0.00 0.00 70 1017.5
20260505174600 15 295 6.4 14.5 0.00 0.00 0.00 70 1015.1
20260505174204 15 295 8.0 16.1 0.00 0.00 0.00 69 1017.4
20260505173705 15 295 8.0 17.7 0.00 0.00 0.00 70 1017.3
20260505173205 15 295 11.3 17.7 0.00 0.00 0.00 70 1017.5
20260505173059 15 295 11.3 17.7 0.00 0.00 0.00 70 1015.0
20260505172705 15 295 12.9 17.7 0.00 0.00 0.00 71 1017.4
20260505172204 15 295 14.5 17.7 0.00 0.00 0.00 71 1017.4
20260505171705 15 358 9.7 17.7 0.00 0.00 0.00 72 1017.3
20260505171557 15 358 11.3 17.7 0.00 0.00 0.00 72 1014.9
20260505171205 15 358 14.5 19.3 0.00 0.00 0.00 71 1017.2
20260505170100 15 334 11.3 19.3 0.00 0.00 0.00 64 1014.8
20260505165704 15 285 11.3 17.7 0.00 0.00 0.00 64 1017.2
20260505165205 15 278 9.7 17.7 0.00 0.00 0.00 64 1017.1
20260505164704 16 295 12.9 20.9 0.00 0.00 0.00 63 1017.1
20260505164620 16 300 9.7 17.7 0.00 0.00 0.00 64 1014.7
20260505164204 16 292 14.5 20.9 0.00 0.00 0.00 63 1017.1
20260505163704 16 295 11.3 22.5 0.00 0.00 0.00 65 1017.0
20260505163204 15 295 14.5 22.5 0.00 0.00 0.00 66 1017.1
20260505163052 15 280 14.5 20.9 0.00 0.00 0.00 67 1014.7
20260505162704 15 299 17.7 22.5 0.00 0.00 0.00 67 1017.1
20260505162204 15 278 17.7 20.9 0.00 0.00 0.00 70 1017.0
20260505161548 15 295 12.9 19.3 0.00 0.00 0.00 71 1014.7
20260505161204 15 295 9.7 14.5 0.00 0.00 0.00 74 1017.0
20260505160704 14 289 6.4 14.5 0.00 0.00 0.00 77 1017.0
20260505160204 14 279 6.4 8.0 0.00 0.00 0.00 78 1017.0
20260505153204 13 295 1.6 6.4 0.00 0.00 0.00 84 1016.8
20260505153046 12 295 1.6 6.4 0.00 0.00 0.00 84 1014.4
20260505152705 13 295 1.6 6.4 0.00 0.00 0.00 84 1016.9
20260505152204 13 295 3.2 6.4 0.00 0.00 0.00 86 1016.8
20260505151705 12 295 3.2 4.8 0.00 0.00 0.00 86 1016.9
20260505151544 12 295 3.2 4.8 0.00 0.00 0.00 86 1014.5
20260505150704 12 295 1.6 6.4 0.00 0.00 0.00 88 1016.8
20260505150204 12 295 3.2 6.4 0.00 0.00 0.00 88 1016.8
20260505140205 11 295 4.8 8.0 0.00 0.00 0.00 90 1016.5
20260505130204 11 295 6.4 8.0 0.00 0.00 0.00 90 1016.2
20260505124704 11 295 4.8 8.0 0.00 0.00 0.00 89 1016.2
20260505124533 11 295 4.8 6.4 0.00 0.00 0.00 89 1013.8
20260505124204 11 295 4.8 8.0 0.00 0.00 0.00 90 1016.3
20260505123204 11 295 8.0 9.7 0.00 0.00 0.00 89 1016.3
20260505123032 11 295 6.4 8.0 0.00 0.00 0.00 89 1013.8
20260505121704 11 295 8.0 11.3 0.00 0.00 0.00 89 1016.1
20260505121531 11 295 8.0 12.9 0.00 0.00 0.00 89 1013.7
20260505121205 11 295 8.0 11.3 0.00 0.00 0.00 88 1016.1
20260505120204 11 295 9.7 11.3 0.00 0.00 0.00 88 1016.2
20260505120037 11 295 6.4 12.9 0.00 0.00 0.00 88 1013.9
20260505115705 11 295 9.7 16.1 0.00 0.00 0.00 88 1016.3
20260505115205 11 295 8.0 16.1 0.00 0.00 0.00 87 1016.2
20260505114704 11 295 9.7 16.1 0.00 0.00 0.00 87 1016.2
20260505114527 11 295 8.0 16.1 0.00 0.00 0.00 87 1013.9
20260505114205 11 295 12.9 19.3 0.00 0.00 0.00 87 1016.2
20260505113704 12 295 9.7 19.3 0.00 0.00 0.00 86 1016.2
20260505113204 12 295 9.7 20.9 0.00 0.00 0.00 86 1016.3
20260505113031 11 295 11.3 19.3 0.00 0.00 0.00 86 1014.0
20260505112704 12 295 16.1 20.9 0.00 0.00 0.00 86 1016.3
20260505111705 12 295 14.5 17.7 0.00 0.00 0.00 85 1016.3
20260505111524 12 295 12.9 17.7 0.00 0.00 0.00 85 1013.9
20260505111204 12 295 14.5 17.7 0.00 0.00 0.00 85 1016.2
20260505110704 12 295 14.5 17.7 0.00 0.00 0.00 85 1016.3
20260505110204 12 295 11.3 17.7 0.00 0.00 0.00 85 1016.2
20260505102204 12 295 12.9 20.9 0.00 0.00 0.00 83 1016.3
20260505101525 12 295 14.5 19.3 0.00 0.00 0.00 82 1013.9
20260505100704 12 295 14.5 20.9 0.00 0.00 0.00 82 1016.3
20260505100019 12 295 16.1 20.9 0.00 0.00 0.00 82 1014.1
20260505095704 12 295 14.5 24.1 0.00 0.00 0.00 82 1016.4
20260505095205 12 295 12.9 24.1 0.00 0.00 0.00 81 1016.3